Regional Weather Roundup
Issued by NWS

Home | Current Version | Previous Version | Text Only | Print | Product List | Glossary Off
Versions: 1 2 3 4 5 6 7 8 9 10 11 12 13 14 15 16 17 18 19 20 21 22 23 24 25 26 27 28 29 30 31 32 33 34 35 36 37 38 39 40 41 42 43 44 45 46 47 48 49 50

303
ASUS43 KIND 192109
RWRIN

WEATHER ROUNDUP FOR INDIANA
NATIONAL WEATHER SERVICE INDIANAPOLIS IN
400 PM EST SUN FEB 19 2017

NOTE: "FAIR" INDICATES FEW OR NO CLOUDS BELOW 12,000 FEET WITH NO
SIGNIFICANT WEATHER AND/OR OBSTRUCTIONS TO VISIBILITY.

* - STATION DOES NOT REPORT WEATHER SUCH AS PRECIPITATION OR FOG.

+ - STATION NOT QUALITY CONTROLLED BY THE NATIONAL WEATHER SERVICE.
    USE DATA WITH CAUTION...ESPECIALLY DEWPOINT AND RELATIVE
    HUMIDITY OBSERVATIONS.

INZ001>003-010>013-019-020-192200-
NORTHWEST INDIANA

CITY           SKY/WX    TMP DP  RH WIND       PRES   REMARKS
GARY /AIRPORT/ MOSUNNY   57  28  33 NE5       30.07R
KNOX *+        SUNNY     63   1   8 CALM      30.06S
LA PORTE +     SUNNY     64  35  34 CALM      30.07S
MICHIGAN CITY+ MOSUNNY   59  32  36 N5        30.07S
MONTICELLO +   SUNNY     62  45  53 S3        30.07R
RENSSELAER +   SUNNY     63  41  45 S5        30.08R
VALPARAISO     SUNNY     65  34  31 S8        30.07R

$$

LMZ046-743>745-192200-
SOUTHERN LAKE MICHIGAN

STATION/POSITION TIME  TEMP    WIND        PRES    WAVE
                       AIR SEA DIR/SP/G            HT
                 (UTC) (F)     (DEG/KT/KT) (MB)    (FT)
BURNS HARBOR     2040   44      70/  9/  9 1018.6S
MICHIGAN CITY    2040   42      20/  7/  7   N/A

$$

INZ004-005-014>016-021>024-192200-
NORTH CENTRAL INDIANA

CITY           SKY/WX    TMP DP  RH WIND       PRES   REMARKS
ELKHART        SUNNY     64  28  25 NW7       30.06R
GOSHEN         SUNNY     64  35  34 SW8       30.06R
LOGANSPORT +   SUNNY     61  45  55 CALM      30.09R
PERU/GRISSOM   SUNNY     63  45  51 NW3       30.07R
ROCHESTER +    SUNNY     64  36  34 SW3       30.08R
SOUTH BEND     SUNNY     65  26  23 NW10      30.07R
WARSAW +       SUNNY     63  36  36 W7        30.07R

$$

INZ006>009-017-018-025>027-192200-
NORTHEAST INDIANA

CITY           SKY/WX    TMP DP  RH WIND       PRES   REMARKS
ANGOLA *+      SUNNY     64  55  72 W10       30.06R
AUBURN +       SUNNY     63  28  27 NW7       30.07R
FORT WAYNE     MOSUNNY   64  33  31 W10       30.07R
HUNTINGTON +   SUNNY     64  34  33 W9        30.07R
KENDALLVILLE + SUNNY     63  34  34 W7        30.06R

$$

INZ028-029-035-036-043>045-051>053-192200-
WEST CENTRAL INDIANA

CITY           SKY/WX    TMP DP  RH WIND       PRES   REMARKS
GREENCASTLE +  SUNNY     63  45  51 SW3       30.09R
LAFAYETTE      SUNNY     63  46  54 W6        30.08R
TERRE HAUTE    SUNNY     64  47  53 SW5       30.08R

$$

INZ030>032-037>040-046>048-054>057-064-065-192200-
CENTRAL INDIANA

CITY           SKY/WX    TMP DP  RH WIND       PRES   REMARKS
CP ATTERBURY + SUNNY     63  46  55 E8        30.08F
COLUMBUS       SUNNY     59  48  67 S6        30.09S
FRANKFORT +    SUNNY     66  47  50 CALM      30.10R
GREENWOOD *+   SUNNY     63  48  58 CALM      30.09R
INDIANAPOLIS   MOSUNNY   64  45  49 VRB3      30.08R
-EAGLE CREEK   SUNNY     64  43  46 CALM      30.07R
KOKOMO +       SUNNY     64  45  49 VRB5      30.09R
MARION +       SUNNY     62  44  50 W6        30.08S
MT COMFORT *+  SUNNY     63  45  51 CALM      30.09R
SHELBYVILLE    SUNNY     59  45  59 S5        30.08S
ZIONSVILLE +   SUNNY     63  43  48 W3        30.08S

$$

INZ033-034-041-042-049-050-058-059-192200-
EAST CENTRAL INDIANA

CITY           SKY/WX    TMP DP  RH WIND       PRES   REMARKS
MUNCIE         SUNNY     65  43  44 W8        30.07S

$$

INZ060-061-067>069-081>083-085>088-192200-
SOUTHWEST INDIANA

CITY           SKY/WX    TMP DP  RH WIND       PRES   REMARKS
EVANSVILLE     PTSUNNY   58  49  72 SE3       30.12S
HUNTINGBURG *+ CLOUDY    54  48  82 S7        30.13R
WASHINGTON +   SUNNY     59  47  64 S8        30.10S

$$

INZ062-063-066-070>080-084-089>092-192200-
SOUTH CENTRAL AND SOUTHEAST INDIANA

CITY           SKY/WX    TMP DP  RH WIND       PRES   REMARKS
BEDFORD +      SUNNY     61  46  59 CALM      30.09S
BLOOMINGTON    SUNNY     61  46  57 VRB3      30.09S
MADISON *+     MOSUNNY   59  46  63 S6        30.13R
NORTH VERNON + SUNNY     61  48  63 SW5       30.10S
SEYMOUR +      SUNNY     64  48  55 S3        30.10R

$$





USA.gov is the U.S. government's official web portal to all federal, state and local government web resources and services.